Change the Weather History Date:

Sunday, December 18, 2011

  Actual Average Record
Temperature  
Mean Temperature 32 °F -  
Max Temperature 44 °F 16 °F 44 °F (2011)
Min Temperature 19 °F 3 °F -26 °F (1983)
Degree Days  
Heating Degree Days 34    
Moisture  
Dew Point 24 °F    
Average Humidity 76    
Maximum Humidity 87    
Minimum Humidity 57    
Precipitation  
Precipitation 0.00 in - - ()
Sea Level Pressure  
Sea Level Pressure 29.68 in    
Wind  
Wind Speed 12 mph (SW)    
Max Wind Speed 20 mph    
Max Gust Speed 25 mph    
Visibility 10 miles    
Events      
Averages and records for this station are not official NWS values.
T = Trace of Precipitation, MM = Missing Value Source: NWS Daily Summary

Daily Weather History Graph

Daily Weather History Graph

Search for Another Location

Airport or City:

Trip Planner

Search our weather history database for the weather conditions in past years. The results will help you decide how hot, cold, wet, or windy it might be!

Date:

Astronomy

Dec. 18, 2011 Rise Set
Actual Time 8:10 AM CST 4:32 PM CST
Civil Twilight 7:33 AM CST 5:08 PM CST
Nautical Twilight 6:53 AM CST 5:48 PM CST
Astronomical Twilight 6:16 AM CST 6:26 PM CST
Moon 12:48 AM CST (12/18) 12:19 PM CST (12/18)
Length of Visible Light 9h 35m
Length of Day
8h 22m
Last Quarter, 42% of the Moon is Illuminated
Dec 18
Last Quarter
Dec 24
New
Jan 1
First Quarter
Jan 9
Full
Jan 16
Last Quarter

Hourly Weather History & Observations

Time (CST) Temp. Windchill Dew Point Humidity Pressure Visibility Wind Dir Wind Speed Gust Speed Precip Events Conditions
12:15 AM 19.4 °F 9.5 °F 15.8 °F 86% 29.93 in 10.0 mi SSE 8.1 mph - N/A   Clear
12:35 AM 19.4 °F 8.6 °F 15.8 °F 86% 29.91 in 10.0 mi SSE 9.2 mph - N/A   Clear
12:55 AM 19.4 °F 8.6 °F 14.0 °F 80% 29.91 in 10.0 mi South 9.2 mph - N/A   Clear
1:15 AM 19.4 °F 7.9 °F 15.8 °F 86% 29.88 in 10.0 mi SSE 10.4 mph - N/A   Clear
1:35 AM 19.4 °F 8.6 °F 15.8 °F 86% 29.87 in 10.0 mi SSE 9.2 mph - N/A   Clear
1:55 AM 19.4 °F 10.4 °F 15.8 °F 86% 29.86 in 10.0 mi SSE 6.9 mph - N/A   Clear
2:15 AM 19.4 °F 9.5 °F 15.8 °F 86% 29.85 in 10.0 mi SSE 8.1 mph - N/A   Clear
2:55 AM 19.4 °F 9.5 °F 15.8 °F 86% 29.82 in 10.0 mi South 8.1 mph - N/A   Clear
3:15 AM 21.2 °F 10.9 °F 17.6 °F 86% 29.81 in 10.0 mi South 9.2 mph - N/A   Clear
3:35 AM 23.0 °F 12.4 °F 17.6 °F 80% 29.80 in 10.0 mi South 10.4 mph - N/A   Clear
3:55 AM 24.8 °F 14.6 °F 19.4 °F 80% 29.78 in 10.0 mi South 10.4 mph - N/A   Clear
4:15 AM 24.8 °F 14.0 °F 19.4 °F 80% 29.77 in 10.0 mi South 11.5 mph - N/A   Clear
4:35 AM 26.6 °F 17.5 °F 21.2 °F 80% 29.76 in 10.0 mi South 9.2 mph - N/A   Clear
4:55 AM 28.4 °F 18.0 °F 23.0 °F 80% 29.75 in 10.0 mi SSW 12.7 mph - N/A   Clear
5:15 AM 28.4 °F 18.0 °F 23.0 °F 80% 29.74 in 10.0 mi SSW 12.7 mph - N/A   Clear
5:35 AM 28.4 °F 17.0 °F 23.0 °F 80% 29.73 in 10.0 mi SSW 15.0 mph - N/A   Clear
5:55 AM 28.4 °F 17.0 °F 21.2 °F 74% 29.72 in 10.0 mi SSW 15.0 mph 19.6 mph N/A   Clear
6:15 AM 28.4 °F 17.0 °F 21.2 °F 74% 29.72 in 10.0 mi SSW 15.0 mph 19.6 mph N/A   Clear
6:35 AM 26.6 °F 15.7 °F 21.2 °F 80% 29.71 in 10.0 mi SSW 12.7 mph - N/A   Clear
6:55 AM 26.6 °F 15.2 °F 21.2 °F 80% 29.70 in 10.0 mi SSW 13.8 mph - N/A   Clear
7:15 AM 26.6 °F 14.7 °F 21.2 °F 80% 29.69 in 10.0 mi SSW 15.0 mph - N/A   Clear
7:35 AM 26.6 °F 14.7 °F 21.2 °F 80% 29.68 in 10.0 mi SSW 15.0 mph - N/A   Clear
7:55 AM 26.6 °F 15.2 °F 21.2 °F 80% 29.67 in 10.0 mi SSW 13.8 mph 20.7 mph N/A   Scattered Clouds
8:15 AM 26.6 °F 16.2 °F 21.2 °F 80% 29.66 in 10.0 mi SSW 11.5 mph - N/A   Scattered Clouds
8:35 AM 26.6 °F 17.5 °F 21.2 °F 80% 29.65 in 10.0 mi South 9.2 mph - N/A   Overcast
8:55 AM 28.4 °F 18.0 °F 23.0 °F 80% 29.64 in 10.0 mi SSW 12.7 mph - N/A   Overcast
9:15 AM 28.4 °F 18.0 °F 24.8 °F 86% 29.64 in 10.0 mi SSW 12.7 mph - N/A   Overcast
9:35 AM 28.4 °F 17.5 °F 21.2 °F 74% 29.63 in 10.0 mi SSW 13.8 mph - N/A   Mostly Cloudy
9:55 AM 28.4 °F 18.0 °F 23.0 °F 80% 29.62 in 10.0 mi SSW 12.7 mph 19.6 mph N/A   Partly Cloudy
10:15 AM 30.2 °F 20.2 °F 24.8 °F 80% 29.62 in 10.0 mi SSW 12.7 mph - N/A   Clear
10:35 AM 30.2 °F 20.8 °F 24.8 °F 80% 29.62 in 10.0 mi SSW 11.5 mph - N/A   Clear
10:55 AM 30.2 °F 20.8 °F 24.8 °F 80% 29.61 in 10.0 mi SW 11.5 mph - N/A   Clear
11:15 AM 32.0 °F 22.1 °F 24.8 °F 75% 29.60 in 10.0 mi SW 13.8 mph - N/A   Clear
11:35 AM 33.8 °F 23.5 °F 26.6 °F 75% 29.59 in 10.0 mi SW 16.1 mph - N/A   Clear
12:15 PM 35.6 °F 26.2 °F 26.6 °F 70% 29.57 in 10.0 mi SW 15.0 mph 18.4 mph N/A   Clear
12:35 PM 37.4 °F 28.5 °F 28.4 °F 70% 29.56 in 10.0 mi SW 15.0 mph - N/A   Clear
1:15 PM 39.2 °F 31.6 °F 28.4 °F 65% 29.54 in 10.0 mi SW 12.7 mph - N/A   Clear
1:35 PM 42.8 °F 35.4 °F 30.2 °F 61% 29.54 in 10.0 mi SW 15.0 mph 20.7 mph N/A   Clear
1:55 PM 42.8 °F 35.8 °F 30.2 °F 61% 29.53 in 10.0 mi WSW 13.8 mph - N/A   Clear
2:15 PM 42.8 °F 37.0 °F 30.2 °F 61% 29.53 in 10.0 mi SW 10.4 mph - N/A   Clear
2:35 PM 44.6 °F 37.8 °F 30.2 °F 57% 29.53 in 10.0 mi WSW 15.0 mph - N/A   Clear
2:55 PM 44.6 °F 38.4 °F 30.2 °F 57% 29.54 in 10.0 mi West 12.7 mph - N/A   Clear
3:15 PM 44.6 °F 39.2 °F 30.2 °F 57% 29.55 in 10.0 mi West 10.4 mph - N/A   Clear
3:35 PM 44.6 °F 37.8 °F 30.2 °F 57% 29.55 in 10.0 mi West 15.0 mph - N/A   Clear
3:55 PM 42.8 °F 35.4 °F 30.2 °F 61% 29.56 in 10.0 mi WNW 15.0 mph - N/A   Clear
4:15 PM 39.2 °F 32.0 °F 30.2 °F 70% 29.57 in 10.0 mi WNW 11.5 mph - N/A   Clear
4:35 PM 39.2 °F 30.8 °F 28.4 °F 65% 29.58 in 10.0 mi WNW 15.0 mph 20.7 mph N/A   Clear
4:55 PM 37.4 °F 29.3 °F 28.4 °F 70% 29.59 in 10.0 mi WNW 12.7 mph - N/A   Clear
5:35 PM 35.6 °F 26.2 °F 26.6 °F 70% 29.62 in 10.0 mi NW 15.0 mph 20.7 mph N/A   Clear
5:55 PM 33.8 °F 23.5 °F 26.6 °F 75% 29.62 in 10.0 mi WNW 16.1 mph - N/A   Clear
6:15 PM 33.8 °F 23.9 °F 26.6 °F 75% 29.65 in 10.0 mi WNW 15.0 mph 19.6 mph N/A   Mostly Cloudy
6:35 PM 32.0 °F 20.8 °F 26.6 °F 80% 29.66 in 10.0 mi NW 17.3 mph - N/A   Overcast
6:55 PM 32.0 °F 21.6 °F 26.6 °F 80% 29.68 in 10.0 mi NW 15.0 mph 20.7 mph N/A   Overcast
7:15 PM 32.0 °F 20.5 °F 26.6 °F 80% 29.70 in 10.0 mi NNW 18.4 mph - N/A   Overcast
7:35 PM 32.0 °F 20.5 °F 28.4 °F 87% 29.71 in 9.0 mi NNW 18.4 mph - N/A   Overcast
7:55 PM 32.0 °F 20.1 °F 26.6 °F 80% 29.72 in 10.0 mi NNW 19.6 mph 25.3 mph N/A   Overcast
8:15 PM 30.2 °F 18.1 °F 26.6 °F 86% 29.75 in 10.0 mi NNW 18.4 mph - N/A   Overcast
8:35 PM 30.2 °F 18.9 °F 26.6 °F 86% 29.76 in 10.0 mi NNW 16.1 mph 23.0 mph N/A   Overcast
8:55 PM 30.2 °F 18.1 °F 26.6 °F 86% 29.77 in 10.0 mi NNW 18.4 mph 25.3 mph N/A   Overcast
9:15 PM 30.2 °F 17.4 °F 26.6 °F 86% 29.79 in 10.0 mi NNW 20.7 mph 26.5 mph N/A   Overcast
9:35 PM 30.2 °F 16.8 °F 26.6 °F 86% 29.80 in 10.0 mi NW 23.0 mph 27.6 mph N/A   Overcast
9:55 PM 30.2 °F 16.8 °F 26.6 °F 86% 29.81 in 10.0 mi NNW 23.0 mph 33.4 mph N/A   Overcast
10:15 PM 30.2 °F 16.5 °F 24.8 °F 80% 29.82 in 10.0 mi NNW 24.2 mph 32.2 mph N/A   Overcast
10:35 PM 30.2 °F 16.5 °F 23.0 °F 75% 29.84 in 10.0 mi NW 24.2 mph 32.2 mph N/A   Overcast
11:15 PM 26.6 °F 12.0 °F 19.4 °F 74% 29.87 in 10.0 mi NW 23.0 mph - N/A   Overcast
11:35 PM 26.6 °F 12.7 °F 19.4 °F 74% 29.89 in 10.0 mi NW 20.7 mph 27.6 mph N/A   Overcast
11:55 PM 26.6 °F 10.6 °F 19.4 °F 74% 29.90 in 10.0 mi NNW 28.8 mph 35.7 mph N/A   Overcast